Flag for Germany Weather past 2 weeks in Garbsen, Lower Saxony, Germany

41 °F

Partly cloudy.

Feels Like: 35 °F
Forecast: 34 / 43 °F
Wind: 9 mph from West

Location: Hannover

Current Time: Nov 26, 2015 at 2:07:24 AM

Latest Report: Nov 26, 2015 at 1:20 AM

Visibility: 5 mi

Pressure: 29.74 "Hg

Humidity: 93%

Dew point: 39 °F

Location of GarbsenLocation

Historic Weather in Garbsen — Graph


Garbsen temperature yesterday

Maximum temperature yesterday: 43 °F (at 2:20 PM)
Minimum temperature yesterday: 36 °F (at 12:20 AM)
Average temperature yesterday: 39 °F

Past Weeks' High & Low Weather Summary

High59 °F (Nov 13, 12:50 PM)100% (Nov 11, 1:20 AM)30.27 "Hg (Nov 11, 1:20 AM)
Low32 °F (Nov 21, 11:50 PM)54% (Nov 13, 4:50 PM)29.33 "Hg (Nov 21, 5:20 AM)
Average47 °F87%29.84 "Hg
* Reported Nov 11 12:50 AM — Nov 26 12:50 AM, Garbsen, Weather by CustomWeather, © 2015

Note: Actual official high and low records may vary slightly from our data, if they occured in-between our weather recording intervals... More about our weather records


Garbsen weather history for previous 24 hours

Time TempWeatherWind HumidityBarometerVisibility
12:50 AM
Thu, Nov 26
41 °FPartly cloudy.9 mph93%29.74 "HgN/A
12:20 AM39 °FPartly cloudy.7 mph100%29.71 "HgN/A
11:50 PM
Wed, Nov 25
39 °FPartly cloudy.8 mph100%29.71 "Hg5 mi
11:20 PM39 °FPassing clouds.6 mph100%29.71 "Hg5 mi
10:50 PM37 °FPassing clouds.6 mph100%29.71 "Hg5 mi
10:20 PM39 °FPassing clouds.5 mph100%29.71 "HgN/A
9:50 PM41 °FPassing clouds.5 mph93%29.68 "HgN/A
9:20 PM41 °FPassing clouds.6 mph93%29.68 "HgN/A
8:50 PM41 °FPassing clouds.5 mph93%29.68 "Hg5 mi
8:20 PM41 °FPassing clouds.6 mph100%29.68 "Hg5 mi
7:50 PM41 °FPassing clouds.6 mph100%29.65 "Hg4 mi
7:20 PM41 °FPartly cloudy.7 mph100%29.65 "Hg4 mi
6:50 PM43 °FPassing clouds.7 mph93%29.65 "Hg4 mi
6:20 PM41 °FPassing clouds.6 mph100%29.65 "Hg6 mi
5:50 PM41 °FPartly cloudy.6 mph100%29.62 "Hg6 mi
5:20 PM41 °FPartly cloudy.5 mph100%29.62 "Hg6 mi
4:50 PM41 °FLight rain. Partly cloudy.7 mph93%29.62 "Hg6 mi
4:20 PM41 °FPartly cloudy.6 mph93%29.62 "HgN/A
3:50 PM43 °FBroken clouds.7 mph93%29.62 "HgN/A
3:20 PM43 °FBroken clouds.7 mph93%29.62 "HgN/A
2:50 PM43 °FPartly sunny.7 mph93%29.62 "Hg6 mi
2:20 PM43 °FLow clouds.6 mph93%29.62 "HgN/A
1:50 PM41 °FLow clouds.7 mph93%29.62 "HgN/A
1:20 PM41 °FPartly sunny.7 mph93%29.62 "HgN/A
12:50 PM41 °FLow clouds.9 mph93%29.62 "HgN/A
12:20 PM41 °FLow clouds.10 mph93%29.62 "HgN/A
11:50 AM41 °FLow clouds.8 mph93%29.62 "HgN/A
11:20 AM39 °FLow clouds.7 mph93%29.65 "HgN/A
10:50 AM39 °FLow clouds.8 mph93%29.65 "HgN/A
10:20 AM39 °FLight rain. Low clouds.9 mph93%29.65 "HgN/A
9:50 AM39 °FLight rain. Low clouds.8 mph93%29.65 "HgN/A
9:20 AM37 °FLow clouds.10 mph100%29.65 "HgN/A
8:50 AM37 °FLight rain. Low clouds.12 mph100%29.65 "HgN/A
8:20 AM37 °FLow clouds.10 mph100%29.65 "HgN/A
7:50 AM37 °FLow clouds.13 mph93%29.65 "HgN/A
7:20 AM37 °FDrizzle. Low clouds.10 mph93%29.62 "HgN/A
6:50 AM37 °FLow clouds.8 mph93%29.62 "HgN/A
6:20 AM37 °FDrizzle. Low clouds.7 mph93%29.65 "HgN/A
5:50 AM37 °FLow clouds.8 mph93%29.65 "HgN/A
5:20 AM37 °FOvercast.9 mph93%29.65 "HgN/A
4:20 AM36 °FDrizzle. Overcast.9 mph100%29.65 "HgN/A
3:50 AM36 °FDrizzle. Overcast.7 mph100%29.65 "HgN/A
3:20 AM36 °FDrizzle. Overcast.7 mph100%29.68 "HgN/A
2:50 AM36 °FDrizzle. Overcast.8 mph93%29.68 "HgN/A
2:20 AM36 °FPassing clouds.6 mph93%29.68 "HgN/A
Weather by CustomWeather, © 2015

See weather overviewHow to use our weather pages